Hoonah, AK

8:39 AM AKDT on October 22, 2017 (GMT -0800)
Hoonah

Weather History for PAOH - October, 2012

Change the Weather History Date:

Tuesday, October 16, 2012

  Actual Average Record
Temperature  
Mean Temperature 40 °F -  
Max Temperature 46 °F 45 °F 55 °F (2015)
Min Temperature 34 °F 37 °F 28 °F (2003)
Degree Days  
Heating Degree Days 24    
Moisture  
Dew Point 39 °F    
Average Humidity 96    
Maximum Humidity 100    
Minimum Humidity 81    
Precipitation  
Precipitation 0.04 in - - ()
Sea Level Pressure  
Sea Level Pressure 29.43 in    
Wind  
Wind Speed 1 mph (WNW)    
Max Wind Speed 8 mph    
Max Gust Speed -    
Visibility 7 miles    
Events Fog , Rain    
Averages and records for this station are not official NWS values.
T = Trace of Precipitation, MM = Missing Value Source: NWS Daily Summary

Daily Weather History Graph

Daily Weather History Graph

Search for Another Location

Airport or City:

Trip Planner

Search our weather history database for the weather conditions in past years. The results will help you decide how hot, cold, wet, or windy it might be!

Date:

Astronomy

Oct. 16, 2012 Rise Set
Actual Time 7:40 AM AKDT 5:52 PM AKDT
Civil Twilight 7:00 AM AKDT 6:32 PM AKDT
Nautical Twilight 6:15 AM AKDT 7:17 PM AKDT
Astronomical Twilight 5:29 AM AKDT 8:03 PM AKDT
Moon 9:44 AM AKDT (10/16) 6:07 PM AKDT (10/16)
Length of Visible Light 11h 31m
Length of Day
10h 11m
Waxing Crescent, 3% of the Moon is Illuminated
Oct 16
Waxing Crescent
Oct 21
First Quarter
Oct 29
Full
Nov 6
Last Quarter
Nov 13
New

Hourly Weather History & Observations

Time (AKDT) Temp. Windchill Dew Point Humidity Pressure Visibility Wind Dir Wind Speed Gust Speed Precip Events Conditions
12:11 AM 39.2 °F - 39.2 °F 100% 29.10 in 0.5 mi Calm Calm - N/A Fog Fog
12:28 AM 39.2 °F - 39.2 °F 100% 29.10 in 0.8 mi Calm Calm - N/A   Mostly Cloudy
12:56 AM 38.8 °F - 38.8 °F 100% 29.12 in 0.5 mi Calm Calm - N/A Fog Fog
1:36 AM 37.4 °F - 37.4 °F 100% 29.13 in 1.0 mi Calm Calm - N/A   Mist
1:56 AM 36.9 °F - 36.9 °F 100% 29.14 in 0.5 mi Calm Calm - N/A Fog Fog
2:15 AM 35.6 °F 31.7 °F 35.6 °F 100% 29.15 in 1.0 mi East 4.6 mph - N/A   Mostly Cloudy
2:18 AM 35.6 °F - 35.6 °F 100% 29.15 in 1.5 mi Calm Calm - N/A   Mostly Cloudy
2:23 AM 35.6 °F 32.8 °F 35.6 °F 100% 29.15 in 3.0 mi ESE 3.5 mph - N/A   Mostly Cloudy
2:56 AM 36.9 °F - 36.9 °F 100% 29.17 in 10.0 mi Calm Calm - N/A   Mostly Cloudy
3:56 AM 37.9 °F - 37.9 °F 100% 29.21 in 10.0 mi Calm Calm - N/A   Mostly Cloudy
4:56 AM 37.9 °F 34.4 °F 37.9 °F 100% 29.23 in 10.0 mi NE 4.6 mph - 0.00 in   Mostly Cloudy
5:56 AM 37.9 °F - 37.9 °F 100% 29.25 in 10.0 mi Calm Calm - N/A   Overcast
6:56 AM 37.4 °F - 37.4 °F 100% 29.28 in 10.0 mi Calm Calm - N/A   Mostly Cloudy
7:56 AM 37.9 °F - 37.9 °F 100% 29.32 in 10.0 mi Calm Calm - 0.00 in   Overcast
8:11 AM 37.4 °F - 37.4 °F 100% 29.33 in 10.0 mi Calm Calm - N/A   Overcast
8:56 AM 38.8 °F 36.5 °F 38.8 °F 100% 29.36 in 10.0 mi NNW 3.5 mph - N/A   Scattered Clouds
9:56 AM 41.0 °F - 41.0 °F 100% 29.39 in 9.0 mi Calm Calm - N/A   Mostly Cloudy
10:56 AM 43.9 °F 41.3 °F 43.0 °F 97% 29.44 in 10.0 mi Variable 4.6 mph - N/A   Mostly Cloudy
11:56 AM 45.0 °F - 43.0 °F 93% 29.48 in 10.0 mi Calm Calm - 0.00 in   Overcast
12:56 PM 46.4 °F - 41.0 °F 81% 29.50 in 10.0 mi Calm Calm - N/A   Mostly Cloudy
1:56 PM 45.9 °F 44.6 °F 43.0 °F 90% 29.54 in 10.0 mi NW 3.5 mph - N/A   Mostly Cloudy
2:56 PM 45.9 °F 42.9 °F 41.9 °F 86% 29.57 in 6.0 mi Variable 5.8 mph - 0.00 in Rain Light Rain
3:56 PM 44.6 °F - 41.0 °F 87% 29.59 in 10.0 mi Calm Calm - N/A   Overcast
4:56 PM 43.9 °F 39.3 °F 39.9 °F 86% 29.64 in 10.0 mi West 8.1 mph - N/A   Mostly Cloudy
5:14 PM 44.6 °F 40.7 °F 39.2 °F 81% 29.65 in 3.0 mi WSW 6.9 mph - 0.02 in Rain Rain
5:34 PM 42.8 °F 40.1 °F 41.0 °F 93% 29.66 in 10.0 mi NNW 4.6 mph - 0.03 in Rain Light Rain
5:56 PM 41.9 °F - 41.0 °F 97% 29.68 in 10.0 mi Calm Calm - 0.04 in   Mostly Cloudy
6:56 PM 41.9 °F 40.0 °F 39.9 °F 93% 29.73 in 8.0 mi Variable 3.5 mph - 0.00 in Rain Light Rain
7:56 PM 41.0 °F 38.0 °F 37.9 °F 89% 29.77 in 10.0 mi SW 4.6 mph - 0.00 in   Scattered Clouds
8:56 PM 39.9 °F - 38.8 °F 96% 29.80 in 10.0 mi Calm Calm - N/A   Overcast
9:56 PM 39.2 °F 33.6 °F 35.6 °F 87% 29.84 in 6.0 mi SW 8.1 mph - N/A Rain Light Rain
10:56 PM 36.9 °F - 36.9 °F 100% 29.87 in 10.0 mi Calm Calm - 0.00 in   Partly Cloudy
11:56 PM 34.9 °F - 34.9 °F 100% 29.89 in 9.0 mi Calm Calm - N/A   Clear